PRIVATE WETTERSTATION BILLIGHEIM-ALLFELD                       ZURCK
Wetterdaten: Dienstag, 25.07.2017
Datum Zeit Temp. A. Temp. A. min Temp. A. max Feuchte A. Luftdruck Regen Wind Richtung Richtung Sonnenschein ET Solar Taupunkt Windchill Windben Empfang
25.07.2017 00:00 12,4 C 12,4 C 12,4 C 89 % 1009,4 hPa 0,0 l/m 0,0 km/h (0 Bft) W-SW 247 0 min 0,000 mm 0 W/m 10,6 C 12,4 C 8,0 km/h (2 Bft) 100 %
25.07.2017 00:10 12,4 C 12,4 C 12,4 C 89 % 1009,3 hPa 0,0 l/m 0,0 km/h (0 Bft) W-SW 247 0 min 0,000 mm 0 W/m 10,6 C 12,4 C 9,7 km/h (2 Bft) 100 %
25.07.2017 00:20 12,5 C 12,4 C 12,5 C 89 % 1009,3 hPa 0,0 l/m 0,0 km/h (0 Bft) SW 225 0 min 0,000 mm 0 W/m 10,7 C 12,5 C 6,4 km/h (2 Bft) 100 %
25.07.2017 00:30 12,6 C 12,5 C 12,6 C 89 % 1009,3 hPa 0,0 l/m 0,0 km/h (0 Bft) W 270 0 min 0,000 mm 0 W/m 10,8 C 12,6 C 6,4 km/h (2 Bft) 100 %
25.07.2017 00:40 12,7 C 12,6 C 12,7 C 89 % 1009,3 hPa 0,2 l/m 0,0 km/h (0 Bft) W 270 0 min 0,000 mm 0 W/m 10,9 C 12,7 C 6,4 km/h (2 Bft) 100 %
25.07.2017 00:50 12,8 C 12,7 C 12,8 C 89 % 1009,2 hPa 0,6 l/m 0,0 km/h (0 Bft) W 270 0 min 0,000 mm 0 W/m 11,0 C 12,8 C 6,4 km/h (2 Bft) 100 %
25.07.2017 01:00 12,8 C 12,8 C 12,8 C 89 % 1009,2 hPa 0,2 l/m 0,0 km/h (0 Bft) W-SW 247 0 min 0,000 mm 0 W/m 11,0 C 12,8 C 8,0 km/h (2 Bft) 100 %
25.07.2017 01:10 12,9 C 12,8 C 12,9 C 89 % 1009,2 hPa 0,2 l/m 0,0 km/h (0 Bft) N 0 0 min 0,000 mm 0 W/m 11,1 C 12,9 C 0,0 km/h (0 Bft) 100 %
25.07.2017 01:20 12,9 C 12,8 C 12,9 C 89 % 1009,1 hPa 1,6 l/m 3,2 km/h (1 Bft) W-SW 247 0 min 0,000 mm 0 W/m 11,1 C 12,9 C 16,1 km/h (3 Bft) 100 %
25.07.2017 01:30 12,8 C 12,8 C 12,9 C 89 % 1009,2 hPa 1,4 l/m 4,8 km/h (1 Bft) W-SW 247 0 min 0,000 mm 0 W/m 11,0 C 12,8 C 17,7 km/h (3 Bft) 100 %
25.07.2017 01:40 12,8 C 12,8 C 12,8 C 89 % 1009,3 hPa 0,2 l/m 4,8 km/h (1 Bft) W-SW 247 0 min 0,000 mm 0 W/m 11,0 C 12,8 C 16,1 km/h (3 Bft) 100 %
25.07.2017 01:50 12,8 C 12,8 C 12,9 C 89 % 1009,2 hPa 0,0 l/m 3,2 km/h (1 Bft) W 270 0 min 0,000 mm 0 W/m 11,0 C 12,8 C 11,3 km/h (2 Bft) 100 %
25.07.2017 02:00 12,9 C 12,8 C 12,9 C 89 % 1009,1 hPa 0,0 l/m 1,6 km/h (1 Bft) W-SW 247 0 min 0,000 mm 0 W/m 11,1 C 12,9 C 16,1 km/h (3 Bft) 100 %
25.07.2017 02:10 12,8 C 12,8 C 12,9 C 89 % 1009,0 hPa 0,0 l/m 1,6 km/h (1 Bft) W-SW 247 0 min 0,000 mm 0 W/m 11,0 C 12,8 C 9,7 km/h (2 Bft) 100 %
25.07.2017 02:20 12,8 C 12,8 C 12,8 C 89 % 1009,0 hPa 0,0 l/m 1,6 km/h (1 Bft) W-NW 292 0 min 0,000 mm 0 W/m 11,0 C 12,8 C 11,3 km/h (2 Bft) 100 %
25.07.2017 02:30 12,8 C 12,8 C 12,8 C 89 % 1009,0 hPa 0,0 l/m 0,0 km/h (0 Bft) W 270 0 min 0,000 mm 0 W/m 11,0 C 12,8 C 8,0 km/h (2 Bft) 100 %
25.07.2017 02:40 12,8 C 12,8 C 12,8 C 89 % 1008,9 hPa 0,0 l/m 0,0 km/h (0 Bft) W-NW 292 0 min 0,000 mm 0 W/m 11,0 C 12,8 C 6,4 km/h (2 Bft) 99 %
25.07.2017 02:50 12,7 C 12,7 C 12,8 C 89 % 1008,8 hPa 0,0 l/m 0,0 km/h (0 Bft) W-SW 247 0 min 0,000 mm 0 W/m 10,9 C 12,7 C 6,4 km/h (2 Bft) 100 %
25.07.2017 03:00 12,7 C 12,7 C 12,7 C 89 % 1008,8 hPa 0,0 l/m 0,0 km/h (0 Bft) W 270 0 min 0,000 mm 0 W/m 10,9 C 12,7 C 8,0 km/h (2 Bft) 100 %
25.07.2017 03:10 12,6 C 12,6 C 12,7 C 89 % 1008,8 hPa 0,0 l/m 0,0 km/h (0 Bft) W 270 0 min 0,000 mm 0 W/m 10,8 C 12,6 C 4,8 km/h (1 Bft) 100 %
25.07.2017 03:20 12,6 C 12,6 C 12,7 C 89 % 1008,8 hPa 0,0 l/m 0,0 km/h (0 Bft) N 0 0 min 0,000 mm 0 W/m 10,8 C 12,6 C 0,0 km/h (0 Bft) 100 %
25.07.2017 03:30 12,6 C 12,6 C 12,6 C 89 % 1008,7 hPa 0,0 l/m 0,0 km/h (0 Bft) W-SW 247 0 min 0,000 mm 0 W/m 10,8 C 12,6 C 6,4 km/h (2 Bft) 100 %
25.07.2017 03:40 12,6 C 12,6 C 12,6 C 89 % 1008,7 hPa 0,0 l/m 0,0 km/h (0 Bft) W-SW 247 0 min 0,000 mm 0 W/m 10,8 C 12,6 C 6,4 km/h (2 Bft) 100 %
25.07.2017 03:50 12,4 C 12,4 C 12,6 C 89 % 1008,7 hPa 0,0 l/m 3,2 km/h (1 Bft) SW 225 0 min 0,000 mm 0 W/m 10,6 C 12,4 C 9,7 km/h (2 Bft) 100 %
25.07.2017 04:00 12,4 C 12,4 C 12,5 C 89 % 1008,7 hPa 0,0 l/m 3,2 km/h (1 Bft) S-SW 202 0 min 0,000 mm 0 W/m 10,6 C 12,4 C 11,3 km/h (2 Bft) 99 %
25.07.2017 04:10 12,5 C 12,4 C 12,5 C 89 % 1008,6 hPa 0,0 l/m 1,6 km/h (1 Bft) S-SW 202 0 min 0,000 mm 0 W/m 10,7 C 12,5 C 9,7 km/h (2 Bft) 97 %
25.07.2017 04:20 12,4 C 12,4 C 12,5 C 89 % 1008,6 hPa 0,0 l/m 1,6 km/h (1 Bft) W-SW 247 0 min 0,000 mm 0 W/m 10,6 C 12,4 C 11,3 km/h (2 Bft) 97 %
25.07.2017 04:30 12,4 C 12,4 C 12,4 C 89 % 1008,6 hPa 0,0 l/m 3,2 km/h (1 Bft) SW 225 0 min 0,000 mm 0 W/m 10,6 C 12,4 C 9,7 km/h (2 Bft) 98 %
25.07.2017 04:40 12,2 C 12,2 C 12,4 C 89 % 1008,6 hPa 0,0 l/m 3,2 km/h (1 Bft) SW 225 0 min 0,000 mm 0 W/m 10,4 C 12,2 C 9,7 km/h (2 Bft) 97 %
25.07.2017 04:50 12,1 C 12,1 C 12,2 C 89 % 1008,6 hPa 0,0 l/m 3,2 km/h (1 Bft) W-SW 247 0 min 0,000 mm 0 W/m 10,3 C 12,1 C 11,3 km/h (2 Bft) 98 %
25.07.2017 05:00 12,1 C 12,0 C 12,1 C 89 % 1008,5 hPa 0,0 l/m 1,6 km/h (1 Bft) SW 225 0 min 0,000 mm 0 W/m 10,3 C 12,1 C 11,3 km/h (2 Bft) 96 %
25.07.2017 05:10 12,0 C 12,0 C 12,1 C 89 % 1008,5 hPa 0,0 l/m 1,6 km/h (1 Bft) SW 225 0 min 0,000 mm 0 W/m 10,2 C 12,0 C 11,3 km/h (2 Bft) 97 %
25.07.2017 05:20 11,9 C 11,9 C 12,0 C 89 % 1008,5 hPa 0,0 l/m 1,6 km/h (1 Bft) SW 225 0 min 0,000 mm 0 W/m 10,1 C 11,9 C 9,7 km/h (2 Bft) 98 %
25.07.2017 05:30 11,9 C 11,9 C 11,9 C 89 % 1008,4 hPa 0,0 l/m 1,6 km/h (1 Bft) SW 225 0 min 0,000 mm 0 W/m 10,1 C 11,9 C 11,3 km/h (2 Bft) 98 %
25.07.2017 05:40 11,9 C 11,9 C 11,9 C 89 % 1008,4 hPa 0,0 l/m 1,6 km/h (1 Bft) SW 225 0 min 0,000 mm 0 W/m 10,1 C 11,9 C 11,3 km/h (2 Bft) 98 %
25.07.2017 05:50 11,9 C 11,9 C 11,9 C 89 % 1008,3 hPa 0,0 l/m 1,6 km/h (1 Bft) W-SW 247 0 min 0,000 mm 0 W/m 10,1 C 11,9 C 9,7 km/h (2 Bft) 98 %
25.07.2017 06:00 11,9 C 11,9 C 11,9 C 89 % 1008,3 hPa 0,0 l/m 1,6 km/h (1 Bft) SW 225 0 min 0,000 mm 0 W/m 10,1 C 11,9 C 12,9 km/h (3 Bft) 98 %
25.07.2017 06:10 11,9 C 11,9 C 11,9 C 89 % 1008,3 hPa 0,0 l/m 3,2 km/h (1 Bft) S-SW 202 0 min 0,000 mm 5 W/m 10,1 C 11,9 C 9,7 km/h (2 Bft) 97 %
25.07.2017 06:20 11,9 C 11,9 C 11,9 C 89 % 1008,3 hPa 0,0 l/m 3,2 km/h (1 Bft) SW 225 0 min 0,000 mm 7 W/m 10,1 C 11,9 C 17,7 km/h (3 Bft) 98 %
25.07.2017 06:30 11,9 C 11,9 C 11,9 C 89 % 1008,3 hPa 0,0 l/m 4,8 km/h (1 Bft) W 270 0 min 0,000 mm 9 W/m 10,1 C 11,9 C 17,7 km/h (3 Bft) 97 %
25.07.2017 06:40 12,0 C 11,9 C 12,0 C 89 % 1008,3 hPa 0,0 l/m 6,4 km/h (2 Bft) W 270 0 min 0,000 mm 12 W/m 10,2 C 12,0 C 19,3 km/h (3 Bft) 97 %
25.07.2017 06:50 12,0 C 11,9 C 12,0 C 89 % 1008,2 hPa 0,0 l/m 4,8 km/h (1 Bft) W 270 0 min 0,000 mm 19 W/m 10,2 C 12,0 C 17,7 km/h (3 Bft) 98 %
25.07.2017 07:00 12,1 C 12,0 C 12,1 C 89 % 1008,2 hPa 0,0 l/m 8,0 km/h (2 Bft) W 270 0 min 0,025 mm 28 W/m 10,3 C 11,1 C 20,9 km/h (4 Bft) 98 %
25.07.2017 07:10 12,1 C 12,1 C 12,1 C 89 % 1007,9 hPa 0,0 l/m 8,0 km/h (2 Bft) W 270 0 min 0,000 mm 32 W/m 10,3 C 11,1 C 24,1 km/h (4 Bft) 98 %
25.07.2017 07:20 12,2 C 12,1 C 12,2 C 89 % 1007,9 hPa 0,0 l/m 6,4 km/h (2 Bft) W 270 0 min 0,000 mm 56 W/m 10,4 C 12,2 C 22,5 km/h (4 Bft) 97 %
25.07.2017 07:30 12,2 C 12,1 C 12,2 C 89 % 1008,1 hPa 0,0 l/m 6,4 km/h (2 Bft) W 270 0 min 0,000 mm 53 W/m 10,4 C 12,2 C 17,7 km/h (3 Bft) 98 %
25.07.2017 07:40 12,2 C 12,2 C 12,2 C 89 % 1008,2 hPa 0,0 l/m 1,6 km/h (1 Bft) W 270 0 min 0,000 mm 26 W/m 10,4 C 12,2 C 11,3 km/h (2 Bft) 97 %
25.07.2017 07:50 12,2 C 12,2 C 12,3 C 89 % 1008,1 hPa 0,0 l/m 3,2 km/h (1 Bft) W-SW 247 0 min 0,000 mm 35 W/m 10,4 C 12,2 C 14,5 km/h (3 Bft) 98 %
25.07.2017 08:00 12,3 C 12,2 C 12,3 C 89 % 1008,1 hPa 0,0 l/m 1,6 km/h (1 Bft) W-SW 247 0 min 0,025 mm 35 W/m 10,5 C 12,3 C 9,7 km/h (2 Bft) 97 %
25.07.2017 08:10 12,3 C 12,3 C 12,3 C 89 % 1008,1 hPa 0,0 l/m 3,2 km/h (1 Bft) W-SW 247 0 min 0,000 mm 32 W/m 10,5 C 12,3 C 16,1 km/h (3 Bft) 98 %
25.07.2017 08:20 12,3 C 12,3 C 12,3 C 89 % 1008,3 hPa 0,0 l/m 6,4 km/h (2 Bft) W-SW 247 0 min 0,000 mm 28 W/m 10,5 C 12,3 C 17,7 km/h (3 Bft) 98 %
25.07.2017 08:30 12,3 C 12,3 C 12,3 C 89 % 1008,4 hPa 0,0 l/m 4,8 km/h (1 Bft) W-SW 247 0 min 0,000 mm 35 W/m 10,5 C 12,3 C 19,3 km/h (3 Bft) 97 %
25.07.2017 08:40 12,4 C 12,3 C 12,4 C 89 % 1008,3 hPa 0,0 l/m 1,6 km/h (1 Bft) W 270 0 min 0,000 mm 42 W/m 10,6 C 12,4 C 11,3 km/h (2 Bft) 97 %
25.07.2017 08:50 12,4 C 12,4 C 12,4 C 89 % 1008,2 hPa 0,0 l/m 4,8 km/h (1 Bft) SW 225 0 min 0,000 mm 44 W/m 10,6 C 12,4 C 16,1 km/h (3 Bft) 97 %
25.07.2017 09:00 12,4 C 12,4 C 12,5 C 89 % 1008,2 hPa 0,0 l/m 3,2 km/h (1 Bft) SW 225 0 min 0,025 mm 49 W/m 10,6 C 12,4 C 14,5 km/h (3 Bft) 97 %
25.07.2017 09:10 12,6 C 12,4 C 12,6 C 89 % 1008,1 hPa 0,4 l/m 3,2 km/h (1 Bft) W 270 0 min 0,000 mm 81 W/m 10,8 C 12,6 C 14,5 km/h (3 Bft) 98 %
25.07.2017 09:20 12,7 C 12,6 C 12,7 C 89 % 1008,2 hPa 0,0 l/m 1,6 km/h (1 Bft) W 270 0 min 0,000 mm 81 W/m 10,9 C 12,7 C 11,3 km/h (2 Bft) 98 %
25.07.2017 09:30 12,7 C 12,7 C 12,7 C 89 % 1008,1 hPa 0,0 l/m 4,8 km/h (1 Bft) W 270 0 min 0,000 mm 69 W/m 10,9 C 12,7 C 14,5 km/h (3 Bft) 97 %
25.07.2017 09:40 12,7 C 12,7 C 12,7 C 89 % 1008,0 hPa 0,2 l/m 3,2 km/h (1 Bft) W 270 0 min 0,000 mm 134 W/m 10,9 C 12,7 C 16,1 km/h (3 Bft) 98 %
25.07.2017 09:50 13,0 C 12,7 C 13,0 C 89 % 1007,9 hPa 0,0 l/m 1,6 km/h (1 Bft) W 270 10 min 0,000 mm 207 W/m 11,2 C 13,0 C 14,5 km/h (3 Bft) 97 %
25.07.2017 10:00 13,2 C 13,0 C 13,2 C 89 % 1007,9 hPa 0,0 l/m 8,0 km/h (2 Bft) W 270 10 min 0,051 mm 229 W/m 11,4 C 12,2 C 19,3 km/h (3 Bft) 89 %
25.07.2017 10:10 13,2 C 13,1 C 13,2 C 89 % 1007,9 hPa 0,0 l/m 6,4 km/h (2 Bft) W 270 10 min 0,000 mm 185 W/m 11,4 C 13,2 C 14,5 km/h (3 Bft) 97 %
25.07.2017 10:20 13,3 C 13,2 C 13,3 C 89 % 1007,9 hPa 0,0 l/m 4,8 km/h (1 Bft) W 270 0 min 0,000 mm 146 W/m 11,5 C 13,3 C 17,7 km/h (3 Bft) 98 %
25.07.2017 10:30 13,2 C 13,2 C 13,3 C 89 % 1007,8 hPa 0,0 l/m 8,0 km/h (2 Bft) W-SW 247 0 min 0,000 mm 90 W/m 11,4 C 12,2 C 19,3 km/h (3 Bft) 98 %
25.07.2017 10:40 13,2 C 13,2 C 13,2 C 89 % 1007,8 hPa 0,0 l/m 9,7 km/h (2 Bft) W-SW 247 0 min 0,000 mm 100 W/m 11,4 C 11,3 C 22,5 km/h (4 Bft) 97 %
25.07.2017 10:50 13,3 C 13,2 C 13,3 C 89 % 1007,7 hPa 0,2 l/m 4,8 km/h (1 Bft) W-SW 247 0 min 0,000 mm 148 W/m 11,5 C 13,3 C 17,7 km/h (3 Bft) 97 %
25.07.2017 11:00 13,4 C 13,3 C 13,4 C 89 % 1007,8 hPa 0,0 l/m 6,4 km/h (2 Bft) W 270 0 min 0,051 mm 116 W/m 11,6 C 13,4 C 16,1 km/h (3 Bft) 98 %
25.07.2017 11:10 13,3 C 13,3 C 13,4 C 89 % 1007,8 hPa 0,4 l/m 11,3 km/h (2 Bft) W 270 0 min 0,000 mm 113 W/m 11,5 C 10,6 C 27,4 km/h (4 Bft) 98 %
25.07.2017 11:20 13,2 C 13,2 C 13,3 C 89 % 1007,8 hPa 0,2 l/m 9,7 km/h (2 Bft) W 270 0 min 0,000 mm 116 W/m 11,4 C 11,3 C 22,5 km/h (4 Bft) 97 %
25.07.2017 11:30 13,2 C 13,2 C 13,2 C 89 % 1007,8 hPa 0,0 l/m 9,7 km/h (2 Bft) W 270 10 min 0,000 mm 167 W/m 11,4 C 11,3 C 22,5 km/h (4 Bft) 97 %
25.07.2017 11:40 13,3 C 13,2 C 13,3 C 89 % 1007,8 hPa 0,0 l/m 8,0 km/h (2 Bft) W-NW 292 10 min 0,000 mm 167 W/m 11,5 C 12,3 C 16,1 km/h (3 Bft) 97 %
25.07.2017 11:50 13,3 C 13,3 C 13,3 C 89 % 1007,8 hPa 0,0 l/m 8,0 km/h (2 Bft) W 270 0 min 0,000 mm 141 W/m 11,5 C 12,3 C 20,9 km/h (4 Bft) 98 %
25.07.2017 12:00 13,4 C 13,3 C 13,4 C 89 % 1007,9 hPa 0,0 l/m 4,8 km/h (1 Bft) W 270 0 min 0,076 mm 142 W/m 11,6 C 13,4 C 20,9 km/h (4 Bft) 98 %
25.07.2017 12:10 13,4 C 13,4 C 13,4 C 89 % 1008,0 hPa 0,0 l/m 4,8 km/h (1 Bft) W 270 10 min 0,000 mm 163 W/m 11,6 C 13,4 C 17,7 km/h (3 Bft) 98 %
25.07.2017 12:20 13,5 C 13,4 C 13,5 C 89 % 1008,0 hPa 0,2 l/m 4,8 km/h (1 Bft) W-NW 292 0 min 0,000 mm 132 W/m 11,7 C 13,5 C 14,5 km/h (3 Bft) 97 %
25.07.2017 12:30 13,5 C 13,5 C 13,6 C 89 % 1008,0 hPa 0,6 l/m 3,2 km/h (1 Bft) W-NW 292 0 min 0,000 mm 97 W/m 11,7 C 13,5 C 17,7 km/h (3 Bft) 97 %
25.07.2017 12:40 13,3 C 13,3 C 13,5 C 89 % 1008,0 hPa 0,2 l/m 4,8 km/h (1 Bft) W 270 0 min 0,000 mm 107 W/m 11,5 C 13,3 C 20,9 km/h (4 Bft) 98 %
25.07.2017 12:50 13,3 C 13,2 C 13,3 C 89 % 1008,0 hPa 0,4 l/m 6,4 km/h (2 Bft) W-NW 292 0 min 0,000 mm 118 W/m 11,5 C 13,3 C 22,5 km/h (4 Bft) 98 %
25.07.2017 13:00 13,2 C 13,2 C 13,3 C 89 % 1008,0 hPa 0,2 l/m 6,4 km/h (2 Bft) W-NW 292 0 min 0,076 mm 123 W/m 11,4 C 13,2 C 22,5 km/h (4 Bft) 97 %
25.07.2017 13:10 13,3 C 13,2 C 13,3 C 89 % 1008,1 hPa 0,2 l/m 4,8 km/h (1 Bft) W-NW 292 0 min 0,000 mm 135 W/m 11,5 C 13,3 C 19,3 km/h (3 Bft) 98 %
25.07.2017 13:20 13,3 C 13,2 C 13,3 C 89 % 1008,2 hPa 0,0 l/m 6,4 km/h (2 Bft) W 270 10 min 0,000 mm 181 W/m 11,5 C 13,3 C 19,3 km/h (3 Bft) 98 %
25.07.2017 13:30 13,2 C 13,2 C 13,3 C 89 % 1008,1 hPa 0,0 l/m 8,0 km/h (2 Bft) W 270 10 min 0,000 mm 171 W/m 11,4 C 12,2 C 20,9 km/h (4 Bft) 98 %
25.07.2017 13:40 13,3 C 13,2 C 13,3 C 89 % 1008,1 hPa 0,4 l/m 8,0 km/h (2 Bft) W-SW 247 10 min 0,000 mm 234 W/m 11,5 C 12,3 C 20,9 km/h (4 Bft) 98 %
25.07.2017 13:50 13,4 C 13,3 C 13,4 C 89 % 1008,1 hPa 0,0 l/m 8,0 km/h (2 Bft) W-SW 247 10 min 0,000 mm 244 W/m 11,6 C 12,4 C 19,3 km/h (3 Bft) 98 %
25.07.2017 14:00 13,6 C 13,4 C 13,6 C 89 % 1008,1 hPa 0,2 l/m 8,0 km/h (2 Bft) W 270 10 min 0,076 mm 232 W/m 11,8 C 12,6 C 17,7 km/h (3 Bft) 97 %
25.07.2017 14:10 13,6 C 13,6 C 13,6 C 89 % 1008,1 hPa 0,2 l/m 9,7 km/h (2 Bft) W 270 10 min 0,000 mm 200 W/m 11,8 C 11,7 C 22,5 km/h (4 Bft) 98 %
25.07.2017 14:20 13,6 C 13,6 C 13,6 C 89 % 1007,9 hPa 0,2 l/m 9,7 km/h (2 Bft) W 270 10 min 0,000 mm 183 W/m 11,8 C 11,7 C 22,5 km/h (4 Bft) 97 %
25.07.2017 14:30 13,6 C 13,6 C 13,6 C 89 % 1007,9 hPa 0,6 l/m 9,7 km/h (2 Bft) W 270 0 min 0,000 mm 148 W/m 11,8 C 11,7 C 22,5 km/h (4 Bft) 98 %
25.07.2017 14:40 13,4 C 13,4 C 13,6 C 89 % 1007,9 hPa 0,8 l/m 8,0 km/h (2 Bft) W-SW 247 0 min 0,000 mm 77 W/m 11,6 C 12,4 C 16,1 km/h (3 Bft) 88 %
25.07.2017 14:50 13,5 C 13,4 C 13,5 C 89 % 1007,9 hPa 0,4 l/m 8,0 km/h (2 Bft) W-SW 247 10 min 0,000 mm 162 W/m 11,7 C 12,5 C 20,9 km/h (4 Bft) 97 %
25.07.2017 15:00 13,7 C 13,5 C 13,7 C 89 % 1007,8 hPa 0,6 l/m 6,4 km/h (2 Bft) W-NW 292 10 min 0,076 mm 204 W/m 11,9 C 13,7 C 16,1 km/h (3 Bft) 97 %
25.07.2017 15:10 13,7 C 13,7 C 13,7 C 89 % 1007,8 hPa 1,0 l/m 4,8 km/h (1 Bft) W 270 0 min 0,000 mm 137 W/m 11,9 C 13,7 C 11,3 km/h (2 Bft) 97 %
25.07.2017 15:20 13,6 C 13,6 C 13,7 C 89 % 1007,8 hPa 2,6 l/m 4,8 km/h (1 Bft) W-NW 292 10 min 0,000 mm 167 W/m 11,8 C 13,6 C 11,3 km/h (2 Bft) 98 %
25.07.2017 15:30 13,9 C 13,6 C 13,9 C 89 % 1007,8 hPa 0,2 l/m 4,8 km/h (1 Bft) W-NW 292 10 min 0,000 mm 281 W/m 12,1 C 13,9 C 11,3 km/h (2 Bft) 98 %
25.07.2017 15:40 14,2 C 13,9 C 14,2 C 89 % 1007,8 hPa 0,0 l/m 6,4 km/h (2 Bft) W-NW 292 10 min 0,000 mm 246 W/m 12,4 C 14,2 C 22,5 km/h (4 Bft) 99 %
25.07.2017 15:50 14,1 C 14,1 C 14,2 C 89 % 1007,8 hPa 0,2 l/m 9,7 km/h (2 Bft) W-NW 292 10 min 0,000 mm 207 W/m 12,3 C 12,3 C 19,3 km/h (3 Bft) 98 %
25.07.2017 16:00 14,2 C 14,1 C 14,2 C 89 % 1007,8 hPa 0,2 l/m 8,0 km/h (2 Bft) W-NW 292 10 min 0,102 mm 193 W/m 12,4 C 13,3 C 19,3 km/h (3 Bft) 99 %
25.07.2017 16:10 14,2 C 14,1 C 14,2 C 89 % 1007,8 hPa 0,0 l/m 8,6 km/h (2 Bft) W-NW 296 0 min 0,001 mm 137 W/m 12,4 C 12,9 C 19,3 km/h (3 Bft) 98 %
25.07.2017 16:20 14,1 C 14,1 C 14,2 C 89 % 1007,8 hPa 0,0 l/m 7,9 km/h (2 Bft) W-SW 254 0 min 0,000 mm 113 W/m 12,3 C 13,2 C 17,7 km/h (3 Bft) 97 %
25.07.2017 16:30 14,1 C 14,1 C 14,1 C 89 % 1007,9 hPa 0,0 l/m 8,5 km/h (2 Bft) W 279 0 min 0,000 mm 109 W/m 12,3 C 12,9 C 19,3 km/h (3 Bft) 97 %
25.07.2017 16:40 14,0 C 14,0 C 14,1 C 89 % 1007,9 hPa 0,0 l/m 7,8 km/h (2 Bft) W 259 0 min 0,000 mm 93 W/m 12,2 C 13,2 C 16,1 km/h (3 Bft) 97 %
25.07.2017 16:50 13,9 C 13,9 C 14,0 C 89 % 1007,9 hPa 0,2 l/m 4,6 km/h (1 Bft) W-NW 284 0 min 0,000 mm 83 W/m 12,1 C 13,9 C 12,9 km/h (3 Bft) 97 %
25.07.2017 17:00 13,9 C 13,9 C 14,0 C 89 % 1007,8 hPa 0,2 l/m 3,3 km/h (1 Bft) W-NW 286 0 min 0,076 mm 79 W/m 12,1 C 13,9 C 16,1 km/h (3 Bft) 97 %
25.07.2017 17:10 13,9 C 13,9 C 13,9 C 89 % 1007,8 hPa 0,0 l/m 4,3 km/h (1 Bft) W-NW 286 0 min 0,000 mm 81 W/m 12,1 C 13,9 C 14,5 km/h (3 Bft) 97 %
25.07.2017 17:20 13,9 C 13,9 C 13,9 C 89 % 1007,9 hPa 0,4 l/m 2,6 km/h (1 Bft) W 265 0 min 0,000 mm 81 W/m 12,1 C 13,9 C 11,3 km/h (2 Bft) 97 %
25.07.2017 17:30 13,8 C 13,8 C 13,9 C 89 % 1007,6 hPa 0,0 l/m 4,0 km/h (1 Bft) W-SW 253 0 min 0,000 mm 72 W/m 12,0 C 13,8 C 9,7 km/h (2 Bft) 98 %
25.07.2017 17:40 13,8 C 13,8 C 13,8 C 89 % 1007,7 hPa 0,2 l/m 4,6 km/h (1 Bft) W 265 0 min 0,000 mm 74 W/m 12,0 C 13,8 C 12,9 km/h (3 Bft) 97 %
25.07.2017 17:50 13,8 C 13,8 C 13,8 C 89 % 1007,6 hPa 0,0 l/m 4,0 km/h (1 Bft) W-SW 258 0 min 0,000 mm 70 W/m 12,0 C 13,8 C 12,9 km/h (3 Bft) 98 %
25.07.2017 18:00 13,9 C 13,8 C 13,9 C 89 % 1007,6 hPa 0,2 l/m 4,9 km/h (1 Bft) W-SW 246 0 min 0,051 mm 67 W/m 12,1 C 13,9 C 16,1 km/h (3 Bft) 97 %
25.07.2017 18:10 13,9 C 13,9 C 13,9 C 89 % 1007,5 hPa 0,0 l/m 3,8 km/h (1 Bft) W-SW 248 0 min 0,000 mm 65 W/m 12,1 C 13,9 C 11,3 km/h (2 Bft) 97 %
25.07.2017 18:20 13,9 C 13,9 C 14,0 C 89 % 1007,4 hPa 0,0 l/m 4,3 km/h (1 Bft) SW 215 0 min 0,000 mm 56 W/m 12,1 C 13,9 C 16,1 km/h (3 Bft) 98 %
25.07.2017 18:30 13,9 C 13,9 C 14,0 C 89 % 1007,5 hPa 0,0 l/m 6,3 km/h (2 Bft) NW 304 0 min 0,000 mm 42 W/m 12,1 C 13,9 C 17,7 km/h (3 Bft) 98 %
25.07.2017 18:40 13,8 C 13,8 C 13,9 C 89 % 1007,4 hPa 0,2 l/m 6,6 km/h (2 Bft) W-SW 255 0 min 0,000 mm 42 W/m 12,0 C 13,7 C 19,3 km/h (3 Bft) 97 %
25.07.2017 18:50 13,7 C 13,7 C 13,8 C 89 % 1007,4 hPa 0,2 l/m 7,1 km/h (2 Bft) W 275 0 min 0,000 mm 40 W/m 11,9 C 13,3 C 20,9 km/h (4 Bft) 97 %
25.07.2017 19:00 13,8 C 13,7 C 13,8 C 89 % 1007,3 hPa 0,0 l/m 6,0 km/h (2 Bft) W-NW 296 0 min 0,026 mm 39 W/m 12,0 C 13,8 C 14,5 km/h (3 Bft) 98 %
25.07.2017 19:10 13,7 C 13,7 C 13,8 C 89 % 1007,2 hPa 0,2 l/m 6,8 km/h (2 Bft) W-SW 250 0 min 0,000 mm 40 W/m 11,9 C 13,5 C 24,1 km/h (4 Bft) 97 %
25.07.2017 19:20 13,6 C 13,6 C 13,7 C 89 % 1007,1 hPa 0,2 l/m 6,4 km/h (2 Bft) W 265 0 min 0,000 mm 28 W/m 11,8 C 13,6 C 20,9 km/h (4 Bft) 97 %
25.07.2017 19:30 13,6 C 13,6 C 13,6 C 89 % 1007,1 hPa 0,0 l/m 8,5 km/h (2 Bft) W-SW 258 0 min 0,000 mm 28 W/m 11,8 C 12,4 C 19,3 km/h (3 Bft) 97 %
25.07.2017 19:40 13,6 C 13,6 C 13,6 C 89 % 1006,9 hPa 0,0 l/m 5,1 km/h (1 Bft) W-SW 257 0 min 0,000 mm 28 W/m 11,8 C 13,6 C 16,1 km/h (3 Bft) 97 %
25.07.2017 19:50 13,6 C 13,6 C 13,6 C 89 % 1006,9 hPa 0,4 l/m 6,0 km/h (2 Bft) W 265 0 min 0,000 mm 5 W/m 11,8 C 13,6 C 17,7 km/h (3 Bft) 98 %
25.07.2017 20:00 13,6 C 13,6 C 13,6 C 89 % 1006,9 hPa 0,2 l/m 5,6 km/h (1 Bft) W-SW 252 0 min 0,025 mm 16 W/m 11,8 C 13,6 C 17,7 km/h (3 Bft) 97 %
25.07.2017 20:10 13,6 C 13,6 C 13,6 C 89 % 1006,8 hPa 0,0 l/m 6,5 km/h (2 Bft) SW 226 0 min 0,000 mm 5 W/m 11,8 C 13,6 C 17,7 km/h (3 Bft) 98 %
25.07.2017 20:20 13,4 C 13,4 C 13,6 C 89 % 1006,6 hPa 0,2 l/m 6,2 km/h (2 Bft) S-SW 199 0 min 0,000 mm 5 W/m 11,6 C 13,4 C 17,7 km/h (3 Bft) 97 %
25.07.2017 20:30 13,4 C 13,4 C 13,5 C 89 % 1006,6 hPa 0,4 l/m 8,2 km/h (2 Bft) W-SW 257 0 min 0,000 mm 5 W/m 11,6 C 12,3 C 19,3 km/h (3 Bft) 97 %
25.07.2017 20:40 13,4 C 13,4 C 13,4 C 89 % 1006,6 hPa 0,4 l/m 7,0 km/h (2 Bft) W 271 0 min 0,000 mm 0 W/m 11,6 C 13,0 C 20,9 km/h (4 Bft) 97 %
25.07.2017 20:50 13,4 C 13,4 C 13,4 C 89 % 1006,6 hPa 0,2 l/m 7,3 km/h (2 Bft) W-SW 258 0 min 0,000 mm 0 W/m 11,6 C 12,8 C 19,3 km/h (3 Bft) 97 %
25.07.2017 21:00 13,3 C 13,3 C 13,4 C 89 % 1006,5 hPa 0,4 l/m 7,2 km/h (2 Bft) W 263 0 min 0,025 mm 0 W/m 11,5 C 12,8 C 20,9 km/h (4 Bft) 98 %
25.07.2017 21:10 13,4 C 13,3 C 13,4 C 89 % 1006,4 hPa 0,8 l/m 4,8 km/h (1 Bft) W-SW 247 0 min 0,000 mm 0 W/m 11,6 C 13,4 C 11,3 km/h (2 Bft) 100 %
25.07.2017 21:20 13,4 C 13,3 C 13,4 C 89 % 1006,5 hPa 1,0 l/m 6,4 km/h (2 Bft) W 270 0 min 0,000 mm 0 W/m 11,6 C 13,4 C 20,9 km/h (4 Bft) 100 %
25.07.2017 21:30 13,4 C 13,4 C 13,4 C 89 % 1006,5 hPa 0,8 l/m 8,0 km/h (2 Bft) W 270 0 min 0,000 mm 0 W/m 11,6 C 12,4 C 19,3 km/h (3 Bft) 100 %
25.07.2017 21:40 13,4 C 13,4 C 13,4 C 89 % 1006,4 hPa 0,8 l/m 9,7 km/h (2 Bft) W 270 0 min 0,000 mm 0 W/m 11,6 C 11,5 C 25,7 km/h (4 Bft) 100 %
25.07.2017 21:50 13,3 C 13,3 C 13,4 C 89 % 1006,2 hPa 0,2 l/m 8,0 km/h (2 Bft) W 270 0 min 0,000 mm 0 W/m 11,5 C 12,3 C 22,5 km/h (4 Bft) 100 %
25.07.2017 22:00 13,4 C 13,3 C 13,4 C 89 % 1006,2 hPa 0,8 l/m 9,7 km/h (2 Bft) W-SW 247 0 min 0,025 mm 0 W/m 11,6 C 11,5 C 24,1 km/h (4 Bft) 100 %
25.07.2017 22:10 13,4 C 13,3 C 13,4 C 89 % 1006,0 hPa 0,8 l/m 8,0 km/h (2 Bft) W-SW 247 0 min 0,000 mm 0 W/m 11,6 C 12,4 C 20,9 km/h (4 Bft) 100 %
25.07.2017 22:20 13,4 C 13,4 C 13,4 C 89 % 1006,0 hPa 1,0 l/m 9,7 km/h (2 Bft) W 270 0 min 0,000 mm 0 W/m 11,6 C 11,5 C 19,3 km/h (3 Bft) 100 %
25.07.2017 22:30 13,5 C 13,4 C 13,5 C 89 % 1005,9 hPa 0,4 l/m 6,4 km/h (2 Bft) W-SW 247 0 min 0,000 mm 0 W/m 11,7 C 13,5 C 20,9 km/h (4 Bft) 100 %
25.07.2017 22:40 13,4 C 13,4 C 13,5 C 89 % 1005,9 hPa 0,4 l/m 6,4 km/h (2 Bft) W-SW 247 0 min 0,000 mm 0 W/m 11,6 C 13,4 C 14,5 km/h (3 Bft) 100 %
25.07.2017 22:50 13,4 C 13,4 C 13,5 C 89 % 1005,8 hPa 0,8 l/m 9,7 km/h (2 Bft) W-SW 247 0 min 0,000 mm 0 W/m 11,6 C 11,5 C 22,5 km/h (4 Bft) 99 %
25.07.2017 23:00 13,4 C 13,4 C 13,4 C 89 % 1005,5 hPa 0,4 l/m 12,9 km/h (3 Bft) W 270 0 min 0,025 mm 0 W/m 11,6 C 10,1 C 29,0 km/h (5 Bft) 100 %
25.07.2017 23:10 13,4 C 13,4 C 13,4 C 89 % 1005,4 hPa 0,0 l/m 12,9 km/h (3 Bft) W-SW 247 0 min 0,000 mm 0 W/m 11,6 C 10,1 C 29,0 km/h (5 Bft) 100 %
25.07.2017 23:20 13,4 C 13,4 C 13,4 C 89 % 1005,1 hPa 0,2 l/m 14,5 km/h (3 Bft) SW 225 0 min 0,000 mm 0 W/m 11,6 C 9,4 C 29,0 km/h (5 Bft) 100 %
25.07.2017 23:30 13,4 C 13,4 C 13,4 C 89 % 1004,9 hPa 0,2 l/m 12,9 km/h (3 Bft) SW 225 0 min 0,000 mm 0 W/m 11,6 C 10,1 C 32,2 km/h (5 Bft) 100 %
25.07.2017 23:40 13,4 C 13,4 C 13,4 C 89 % 1004,8 hPa 0,6 l/m 11,3 km/h (2 Bft) W-SW 247 0 min 0,000 mm 0 W/m 11,6 C 10,7 C 25,7 km/h (4 Bft) 100 %
25.07.2017 23:50 13,4 C 13,4 C 13,4 C 89 % 1004,6 hPa 0,2 l/m 14,5 km/h (3 Bft) W-SW 247 0 min 0,000 mm 0 W/m 11,6 C 9,4 C 29,0 km/h (5 Bft) 100 %
_ Min-Zeit 05:20 05:20 05:30 00:00 23:50 - 00:00 - - - - - 05:20 23:20 01:10 14:40
Minimum _ 11,9 C 11,9 C 11,9 C 89 % 1004,6 hPa - 0,0 km/h (0 Bft) - - - - - 10,1 C 9,4 C 0,0 km/h (0 Bft) 88 %
_ Max-Zeit 15:40 15:50 15:40 00:00 00:00 15:20 23:20 - - 09:50 16:00 15:30 15:40 15:40 23:30 00:00
Maximum _ 14,2 C 14,1 C 14,2 C 89 % 1009,4 hPa 2,6 l/m 14,5 km/h
SW (3 Bft)
- - 10 min 0,102 mm 281 W/m 12,4 C 14,2 C 32,2 km/h
W-SW (5 Bft)
100 %
Durchschnitt _ 13,1 C 13,0 C 13,1 C 89 % 1007,8 hPa #28,8 l/m 5,3 km/h (1 Bft) W - #3:20 h #0,837 mm 99 W/m 11,3 C 12,6 C 16,2 km/h (3 Bft) 98 %
PRIVATE WETTERSTATION BILLIGHEIM-ALLFELD - www.neckar-odenwald-wetter.de - Holger Sonntag